Regional Weather Roundup
Issued by NWS

Home | Current Version | Previous Version | Text Only | Print | Product List | Glossary Off
Versions: 1 2 3 4 5 6 7 8 9 10 11 12 13 14 15 16 17 18 19 20 21 22 23 24 25 26 27 28 29 30 31 32 33 34 35 36 37 38 39 40 41 42 43 44 45 46 47 48 49 50

000
ASUS43 KOAX 220702
RWRNE

WEATHER ROUNDUP FOR NEBRASKA
NATIONAL WEATHER SERVICE OMAHA NE
100 AM CST THU FEB 22 2018

NOTES: SATELLITE DATA IS BEING USED TO AUGMENT CLOUD COVER ABOVE
       12000 FEET.
       "FAIR" INDICATES FEW OR NO CLOUDS BELOW 12,000 FEET WITH NO
       SIGNIFICANT WEATHER AND/OR OBSTRUCTIONS TO VISIBILITY.


NEZ001>004-019>022-054>056-220800-
NEBRASKA PANHANDLE

CITY           SKY/WX    TMP DP  RH WIND       PRES   REMARKS
SCOTTSBLUFF    MOCLDY    11   6  81 E9        30.18F WCI  -2
ALLIANCE       MOCLDY     7   4  87 S6        30.19S WCI  -3
CHADRON        FAIR      18   7  62 S12       30.20F WCI   5
GORDON         FAIR      11   5  76 CALM      30.20F
KIMBALL        FAIR       7   2  80 S8        30.13S WCI  -5
SIDNEY         FAIR       7   3  84 S3        30.18R
$$

NEZ057>060-069>072-079>082-220800-
SOUTHWEST NEBRASKA

CITY           SKY/WX    TMP DP  RH WIND       PRES   REMARKS
NORTH PLATTE   FLURRIES  21  16  81 SE12      30.32F WCI   9
IMPERIAL       CLOUDY    21  10  62 SE13      30.27S WCI   9
LEXINGTON      FLURRIES  23  17  79 E10       30.37F WCI  12
MCCOOK         CLOUDY    24   7  48 E13       30.33F WCI  12
OGALLALA       CLOUDY    24  14  66 SE10      30.27S WCI  13
$$

NEZ005>010-023>029-035>040-094-220800-
NORTH CENTRAL NEBRASKA

CITY           SKY/WX    TMP DP  RH WIND       PRES   REMARKS
VALENTINE      FAIR      14   5  67 S6        30.32F WCI   5
AINSWORTH      FAIR      15  10  81 S12       30.34F WCI   2
BROKEN BOW     LGT SNOW  20  16  84 SE9       30.36F FOG     WCI   9
O`NEILL        FLURRIES  19  15  83 SE10      30.42F WCI   8
ORD            LGT SNOW  20  16  84 SE7       30.42F FOG     WCI  11
THEDFORD       CLOUDY    18  13  82 S7        30.31F WCI   8
$$

NEZ041-046>049-061>064-073>077-083>087-220800-
SOUTH CENTRAL NEBRASKA

CITY           SKY/WX    TMP DP  RH WIND       PRES   REMARKS
GRAND ISLAND   CLOUDY    21  14  74 E9        30.44F WCI  11
AURORA         LGT SNOW  21  16  79 E6        30.44F WCI  13
HASTINGS       LGT SNOW  20  13  74 NE8       30.42F WCI  10
HEBRON         LGT SNOW  23  21  92 NE9       30.44F WCI  13
HOLDREGE       CLOUDY    23  11  61 E9        30.37F WCI  13
KEARNEY        FLURRIES  22  13  68 E10       30.40F WCI  11
YORK           LGT SNOW  21  21 100 E7        30.46F WCI  13
$$

NEZ011>018-030>034-042>045-220800-
NORTHEAST NEBRASKA

CITY           SKY/WX    TMP DP  RH WIND       PRES   REMARKS
NORFOLK        CLOUDY    20  15  81 SE8       30.47R WCI  10
ALBION         LGT SNOW  21  16  81 SE8       30.46S WCI  12
BLAIR          LGT SNOW  22  19  90 E6        30.50S VSB 3/4 WCI  14
COLUMBUS       CLOUDY    22  17  81 NE8       30.49S WCI  12
FREMONT        FLURRIES  23  16  76 E6        30.51S WCI  15
TEKAMAH        CLOUDY    22  15  75 E8        30.53R WCI  12
WAYNE          CLOUDY    20  17  88 E5        30.49F WCI  14
$$

NEZ050>053-065>068-078-088>093-220800-
SOUTHEAST NEBRASKA

CITY           SKY/WX    TMP DP  RH WIND       PRES   REMARKS
LINCOLN        LGT SNOW  22  19  89 NE9       30.50S FOG     WCI  12
OMAHA EPPLEY   LGT SNOW  22  19  89 N3        30.54R FOG
BEATRICE       LGT SNOW  25  22  91 NE8       30.45F WCI  16
FALLS CITY     FLURRIES  25  21  85 NE10      30.47F WCI  15
NEBRASKA CITY  CLOUDY    25  22  87 NE7       30.49F WCI  17
PLATTSMOUTH    CLOUDY    24  19  81 NE8       30.49F WCI  15
$$

NEZ044-045-051>053-067-220800-
OMAHA AREA

CITY           SKY/WX    TMP DP  RH WIND       PRES   REMARKS
OMAHA EPPLEY   LGT SNOW  22  19  89 N3        30.54R FOG
BLAIR          LGT SNOW  22  19  90 E6        30.50S VSB 3/4 WCI  14
FREMONT        FLURRIES  23  16  76 E6        30.51S WCI  15
MILLARD        FLURRIES  23  21  89 CALM      30.53R
OFFUTT AFB     MOCLDY    24  17  75 NE6       30.51R WCI  17
PLATTSMOUTH    CLOUDY    24  19  81 NE8       30.49F WCI  15
WAHOO          SNOW      22  19  87 E8        30.52R VSB 1/2 WCI  13
$$




USA.gov is the U.S. government's official web portal to all federal, state and local government web resources and services.